Location: Archemont
(49.1579°N, 1.7598°E)
Time: 12:24:08
(UTC+00:00)

COSMOS 2428 - Pass Details

Date: 03 February 2023
Orbit: 843 x 858 km, 70.9° (Epoch: 26 March)

Event Time Altitude Azimuth Distance (km) Brightness Sun altitude
Rises 18:27:42 0° 159° (SSE) 3,391 5.7 -15.7°
Reaches altitude 10° 18:30:50 10° 142° (SE) 2,460 4.8 -16.2°
Enters shadow 18:32:20 15° 128° (SE) 2,137 4.4 -16.5°
